Regional Weather Roundup
Issued by NWS

Home | Current Version | Previous Version | Text Only | Print | Product List | Glossary Off
Versions: 1 2 3 4 5 6 7 8 9 10 11 12 13 14 15 16 17 18 19 20 21 22 23 24 25 26 27 28 29 30 31 32 33 34 35 36 37 38 39 40 41 42 43 44 45 46 47 48 49 50

000
ASUS45 KABQ 080601
RWRNM
NEW MEXICO REGIONAL WEATHER ROUNDUP
NATIONAL WEATHER SERVICE ALBUQUERQUE NM
1200 AM MDT WED JUL 08 2015

NOTE: "FAIR" MEANS FEW OR NO CLOUDS BELOW 12,000 FEET AGL WITH NO
       SIGNIFICANT WEATHER OR OBSTRUCTIONS TO VISION.

      THIS PRODUCT IS RELEASED AS TWO VERSIONS.  ONE VERSION NEAR
      THE TOP OF THE HOUR CONTAINING PRELIMINARY DATA FROM ALBUQUERQUE
      AND OTHER STATIONS.  A FINAL VERSION WITH ADDITIONAL DATA IS
      ISSUED ABOUT 10 MINUTES AFTER THE HOUR.

NMZ501-503-504-510>518-080700-
NORTHWEST PLATEAU/NORTHCENTRAL MOUNTAINS

CITY           SKY/WX    TMP DP  RH WIND       PRES   REMARKS
FARMINGTON     PTCLDY    64  52  64 E6        30.09S
6HR MIN TEMP:  64; 6HR MAX TEMP:  77; 6HR PCP: TRACE;

SANTA FE       LGT RAIN  57  53  86 SW12      30.26R
6HR MIN TEMP:  57; 6HR MAX TEMP:  70; 6HR PCP:  0.08;

TAOS           MOCLDY    52  43  71 S6        30.26R

$$
NMZ402-403-502-505>509-080700-
WESTCENTRAL MOUNTAINS/SOUTHWEST MOUNTAINS

CITY           SKY/WX    TMP DP  RH WIND       PRES   REMARKS
GALLUP         PTCLDY    57  49  74 E3        30.19S
6HR MIN TEMP:  56; 6HR MAX TEMP:  82; 6HR PCP: TRACE;

SILVER CITY      N/A     66  54  63 N5        30.15S

$$
NMZ407-409-411-412-080700-
SOUTHERN DESERTS

CITY           SKY/WX    TMP DP  RH WIND       PRES   REMARKS
DEMING         CLEAR     71  59  65 SW8       30.06S
6HR MIN TEMP:  71; 6HR MAX TEMP:  80;

ALAMOGORDO     PTCLDY    64  61  88 NW5       30.08S
T OR C         PTCLDY    72  49  44 CALM      30.06F
6HR MIN TEMP:  72; 6HR MAX TEMP:  80;


$$
NMZ519>523-080700-
CENTRAL VALLEYS/CENTRAL HIGHLANDS

CITY           SKY/WX    TMP DP  RH WIND       PRES   REMARKS
ALBUQUERQUE    CLOUDY    62  56  80 E15       30.18F
6HR MIN TEMP:  62; 6HR MAX TEMP:  79; 6HR PCP:  0.20;

DOUBLE EAGLE   CLOUDY    58  56  94 NE6       30.21R
MORIARTY ARPT  TSTM      58  53  84 CALM      30.29R
6HR MIN TEMP:  53; 6HR MAX TEMP:  60; 6HR PCP:  0.05;

CLINES CORNERS CLOUDY    56  54  93 SE5       30.28S FOG
6HR MIN TEMP:  44; 6HR MAX TEMP:  64; 6HR PCP:  0.69;

BELEN            N/A     60  56  88 NE12      30.18
SOCORRO        NOT AVBL

$$
NMZ524>526-539-540-080700-
SOUTHCENTRAL MOUNTAINS

CITY           SKY/WX    TMP DP  RH WIND       PRES   REMARKS
RUIDOSO        NOT AVBL

$$
NMZ527>531-080700-
NORTHEAST HIGHLANDS/NORTHEAST PLAINS

CITY           SKY/WX    TMP DP  RH WIND       PRES   REMARKS
LAS VEGAS      CLOUDY    54  52  93 SW3       30.26F
6HR MIN TEMP:  53; 6HR MAX TEMP:  61; 6HR PCP:  0.07;

RATON          CLOUDY    58  55  90 CALM      30.18F FOG
6HR MIN TEMP:  57; 6HR MAX TEMP:  62; 6HR PCP:  0.20;

CLAYTON        CLOUDY    61  56  83 SE9       30.13F HAZE
6HR MIN TEMP:  61; 6HR MAX TEMP:  72; 6HR PCP:  0.01;


$$
NMZ532>537-080700-
EASTCENTRAL PLAINS

CITY           SKY/WX    TMP DP  RH WIND       PRES   REMARKS
TUCUMCARI      CLOUDY    63  60  90 E5        30.08F FOG
6HR MIN TEMP:  63; 6HR MAX TEMP:  73;

CANNON AFB     NOT AVBL
CLOVIS AIRPORT MOCLDY    61  57  88 SE5         N/A

$$
NMZ028-029-538-080700-
SOUTHEAST PLAINS

CITY           SKY/WX    TMP DP  RH WIND       PRES   REMARKS
ROSWELL        PTCLDY    67  60  78 CALM      30.09F
6HR MIN TEMP:  66; 6HR MAX TEMP:  78; 6HR PCP: TRACE;

ARTESIA        MOCLDY    68  64  88 SE5       30.08F
CARLSBAD       MOCLDY    69  64  84 NE3       30.05F
6HR MIN TEMP:  65; 6HR MAX TEMP:  83; 6HR PCP:  0.23;

HOBBS          MOCLDY    64  64 100 E5        30.10S


$$



USA.gov is the U.S. government's official web portal to all federal, state and local government web resources and services.